When you browse on this site, cookies collect data to enhance your experience and personalize the content and advertising you see.
Visit our Privacy Policy to learn more. By continuing to use the site, you agree to this use of cookies and data.
  • In Hungary
  • List of Countries
  • For 7 days
  • Water Temperature
  • Satellite Maps
  • Weather Map
  • News
  • Weather Widgets
  • user-avatar
    Login

    Hourly Weather Cabimas

    Today, 22 January, Tuesday

    Time Temperature Precipitation Wind Pressure Humidity
    00:00 +28°C° 0 mm 4 mps 760 mmHg 64%
    01:00 +28°C° 0 mm 4 mps 760 mmHg 64%
    02:00 +28°C° 0 mm 4 mps 760 mmHg 66%
    03:00 +27°C° 0 mm 4 mps 760 mmHg 67%
    04:00 +27°C° 0 mm 3 mps 760 mmHg 69%
    05:00 +27°C° 0 mm 3 mps 760 mmHg 69%
    06:00 +27°C° 0 mm 3 mps 760 mmHg 69%
    07:00 +27°C° 0 mm 3 mps 761 mmHg 69%
    08:00 +30°C° 0 mm 2 mps 761 mmHg 60%
    09:00 +33°C° 0 mm 1 mps 761 mmHg 52%
    10:00 +35°C° 0 mm 1 mps 761 mmHg 44%
    11:00 +35°C° 0 mm 1 mps 760 mmHg 43%
    12:00 +36°C° 0 mm 2 mps 759 mmHg 42%
    13:00 +36°C° 0 mm 2 mps 759 mmHg 42%
    14:00 +36°C° 0 mm 3 mps 758 mmHg 43%
    15:00 +36°C° 0 mm 4 mps 758 mmHg 43%
    16:00 +36°C° 0 mm 6 mps 757 mmHg 44%
    17:00 +35°C° 0 mm 6 mps 758 mmHg 46%
    18:00 +34°C° 0 mm 7 mps 758 mmHg 48%
    19:00 +33°C° 0 mm 8 mps 759 mmHg 50%
    20:00 +32°C° 0 mm 7 mps 759 mmHg 52%
    21:00 +30°C° 0 mm 7 mps 760 mmHg 53%
    22:00 +29°C° 0 mm 7 mps 761 mmHg 55%
    23:00 +29°C° 0 mm 6 mps 760 mmHg 58%

    Tomorrow, 23 January, Wednesday

    Time Temperature Precipitation Wind Pressure Humidity
    00:00 +28°C° 0 mm 6 mps 760 mmHg 60%
    01:00 +28°C° 0 mm 5 mps 760 mmHg 62%
    02:00 +28°C° 0 mm 5 mps 760 mmHg 62%
    03:00 +28°C° 0 mm 4 mps 760 mmHg 62%
    04:00 +27°C° 0 mm 3 mps 759 mmHg 62%
    05:00 +28°C° 0 mm 3 mps 760 mmHg 62%
    06:00 +28°C° 0 mm 3 mps 760 mmHg 62%
    07:00 +28°C° 0 mm 2 mps 761 mmHg 62%
    08:00 +30°C° 0 mm 2 mps 761 mmHg 54%
    09:00 +33°C° 0 mm 1 mps 761 mmHg 46%
    10:00 +35°C° 0 mm 1 mps 761 mmHg 39%
    11:00 +37°C° 0 mm 2 mps 760 mmHg 37%
    12:00 +38°C° 0 mm 3 mps 759 mmHg 35%
    13:00 +39°C° 0 mm 3 mps 758 mmHg 33%
    14:00 +38°C° 0 mm 3 mps 757 mmHg 34%
    15:00 +37°C° 0 mm 3 mps 757 mmHg 36%
    16:00 +37°C° 0 mm 3 mps 756 mmHg 38%
    17:00 +35°C° 0 mm 3 mps 757 mmHg 42%
    18:00 +34°C° 0 mm 3 mps 757 mmHg 45%
    19:00 +33°C° 0 mm 3 mps 758 mmHg 49%
    20:00 +32°C° 0 mm 4 mps 758 mmHg 51%
    21:00 +30°C° 0 mm 5 mps 759 mmHg 53%
    22:00 +30°C° 0 mm 5 mps 759 mmHg 55%
    23:00 +29°C° 0 mm 5 mps 759 mmHg 57%

    Day after tomorrow, 24 January, Thursday

    Time Temperature Precipitation Wind Pressure Humidity
    00:00 +29°C° 0 mm 4 mps 759 mmHg 60%
    01:00 +28°C° 0 mm 4 mps 758 mmHg 63%
    02:00 +28°C° 0 mm 3 mps 758 mmHg 64%
    03:00 +27°C° 0 mm 3 mps 758 mmHg 65%
    04:00 +27°C° 0 mm 3 mps 758 mmHg 65%
    05:00 +27°C° 0 mm 3 mps 758 mmHg 65%
    06:00 +27°C° 0 mm 3 mps 759 mmHg 64%
    07:00 +27°C° 0 mm 3 mps 759 mmHg 64%
    08:00 +30°C° 0 mm 2 mps 759 mmHg 56%
    09:00 +33°C° 0 mm 1 mps 760 mmHg 49%
    10:00 +35°C° 0 mm 1 mps 760 mmHg 42%
    11:00 +36°C° 0 mm 1 mps 759 mmHg 40%
    12:00 +37°C° 0 mm 2 mps 758 mmHg 38%
    13:00 +38°C° 0 mm 2 mps 757 mmHg 36%
    14:00 +38°C° 0 mm 3 mps 756 mmHg 37%
    15:00 +37°C° 0 mm 3 mps 756 mmHg 38%
    16:00 +37°C° 0 mm 4 mps 755 mmHg 39%
    17:00 +36°C° 0 mm 4 mps 756 mmHg 44%
    18:00 +34°C° 0 mm 5 mps 757 mmHg 48%
    19:00 +33°C° 0 mm 5 mps 757 mmHg 53%
    20:00 +32°C° 0 mm 5 mps 758 mmHg 54%
    21:00 +32°C° 0 mm 5 mps 758 mmHg 54%
    22:00 +30°C° 0 mm 5 mps 759 mmHg 55%
    23:00 +30°C° 0 mm 4 mps 759 mmHg 58%

    25 January, Friday

    Time Temperature Precipitation Wind Pressure Humidity
    00:00 +29°C° 0 mm 4 mps 758 mmHg 61%
    01:00 +28°C° 0 mm 3 mps 758 mmHg 64%
    02:00 +28°C° 0 mm 2 mps 758 mmHg 66%
    03:00 +28°C° 0 mm 2 mps 758 mmHg 67%
    04:00 +27°C° 0 mm 2 mps 758 mmHg 69%
    05:00 +27°C° 0 mm 2 mps 758 mmHg 68%
    06:00 +27°C° 0 mm 2 mps 759 mmHg 67%
    07:00 +28°C° 0 mm 2 mps 759 mmHg 67%
    08:00 +30°C° 0 mm 1 mps 759 mmHg 59%
    09:00 +33°C° 0 mm 1 mps 759 mmHg 51%
    10:00 +34°C° 0 mm 0 mps 759 mmHg 43%
    11:00 +36°C° 0 mm 1 mps 758 mmHg 41%
    12:00 +38°C° 0 mm 2 mps 757 mmHg 40%
    13:00 +38°C° 0 mm 2 mps 756 mmHg 38%
    14:00 +38°C° 0 mm 3 mps 756 mmHg 39%
    15:00 +37°C° 0 mm 4 mps 756 mmHg 40%
    16:00 +37°C° 0 mm 5 mps 755 mmHg 41%
    17:00 +36°C° 0 mm 5 mps 756 mmHg 44%
    18:00 +34°C° 0 mm 6 mps 756 mmHg 47%
    19:00 +33°C° 0 mm 6 mps 757 mmHg 51%
    20:00 +33°C° 0 mm 6 mps 757 mmHg 51%
    21:00 +32°C° 0 mm 5 mps 758 mmHg 51%
    22:00 +32°C° 0 mm 5 mps 759 mmHg 51%
    23:00 +30°C° 0 mm 4 mps 759 mmHg 53%

    26 January, Saturday

    Time Temperature Precipitation Wind Pressure Humidity
    00:00 +29°C° 0 mm 3 mps 758 mmHg 56%
    01:00 +28°C° 0 mm 2 mps 758 mmHg 58%
    02:00 +28°C° 0 mm 3 mps 758 mmHg 60%
    03:00 +27°C° 0 mm 3 mps 758 mmHg 62%
    04:00 +27°C° 0 mm 3 mps 758 mmHg 64%
    05:00 +27°C° 0 mm 3 mps 758 mmHg 64%
    06:00 +27°C° 0 mm 3 mps 759 mmHg 65%
    07:00 +27°C° 0 mm 2 mps 759 mmHg 65%
    08:00 +30°C° 0 mm 2 mps 759 mmHg 57%
    09:00 +32°C° 0 mm 1 mps 759 mmHg 50%
    10:00 +35°C° 0 mm 1 mps 759 mmHg 42%
    11:00 +36°C° 0 mm 1 mps 758 mmHg 40%
    12:00 +37°C° 0 mm 2 mps 757 mmHg 38%
    13:00 +38°C° 0 mm 2 mps 756 mmHg 37%
    14:00 +37°C° 0 mm 3 mps 756 mmHg 38%
    15:00 +37°C° 0 mm 3 mps 755 mmHg 40%
    16:00 +36°C° 0 mm 3 mps 755 mmHg 42%
    17:00 +35°C° 0 mm 4 mps 755 mmHg 46%
    18:00 +33°C° 0 mm 5 mps 756 mmHg 50%
    19:00 +32°C° 0 mm 6 mps 756 mmHg 54%
    20:00 +30°C° 0 mm 6 mps 757 mmHg 54%
    21:00 +30°C° 0 mm 6 mps 757 mmHg 55%
    22:00 +30°C° 0 mm 6 mps 758 mmHg 55%
    23:00 +29°C° 0 mm 5 mps 757 mmHg 56%

    27 January, Sunday

    Time Temperature Precipitation Wind Pressure Humidity
    00:00 +28°C° 0 mm 3 mps 757 mmHg 58%
    01:00 +28°C° 0 mm 2 mps 757 mmHg 59%
    02:00 +27°C° 0 mm 2 mps 757 mmHg 61%
    03:00 +27°C° 0 mm 1 mps 757 mmHg 64%
    04:00 +26°C° 0 mm 1 mps 757 mmHg 66%
    05:00 +27°C° 0 mm 1 mps 757 mmHg 65%
    06:00 +27°C° 0 mm 2 mps 758 mmHg 65%
    07:00 +27°C° 0 mm 2 mps 758 mmHg 64%
    08:00 +30°C° 0 mm 2 mps 758 mmHg 57%
    09:00 +32°C° 0 mm 1 mps 759 mmHg 50%
    10:00 +35°C° 0 mm 1 mps 759 mmHg 43%
    11:00 +36°C° 0 mm 1 mps 758 mmHg 41%
    12:00 +37°C° 0 mm 2 mps 757 mmHg 39%
    13:00 +38°C° 0 mm 2 mps 756 mmHg 37%
    14:00 +37°C° 0 mm 2 mps 756 mmHg 39%
    15:00 +37°C° 0 mm 3 mps 755 mmHg 40%
    16:00 +36°C° 0 mm 3 mps 754 mmHg 41%
    17:00 +35°C° 0 mm 4 mps 755 mmHg 47%
    18:00 +33°C° 0 mm 4 mps 755 mmHg 52%
    19:00 +32°C° 0 mm 5 mps 756 mmHg 58%
    20:00 +30°C° 0 mm 5 mps 756 mmHg 59%
    21:00 +30°C° 0 mm 4 mps 757 mmHg 60%
    22:00 +29°C° 0 mm 4 mps 757 mmHg 62%
    23:00 +29°C° 0 mm 3 mps 757 mmHg 62%
    Show more